Weather History for K40J - July, 2013

Change the Weather History Date:

Thursday, July 25, 2013

  Actual Average (KCTY) Record (KCTY)
Temperature  
Mean Temperature 78 °F 82 °F  
Max Temperature 87 °F 91 °F - ()
Min Temperature 69 °F 72 °F - ()
Degree Days  
Heating Degree Days 0 0  
Month to date heating degree days 0  
Since 1 June heating degree days 0  
Since 1 July heating degree days 0  
Cooling Degree Days 13 17  
Month to date cooling degree days 409  
Year to date cooling degree days 1335  
Since 1 June cooling degree days 856  
Growing Degree Days 28 (Base 50)    
Moisture  
Dew Point 72 °F    
Average Humidity 83    
Maximum Humidity 100    
Minimum Humidity 62    
Precipitation  
Precipitation 0.02 in 0.21 in - ()
Month to date precipitation 4.44  
Year to date precipitation 26.70  
Sea Level Pressure  
Sea Level Pressure 29.93 in    
Wind  
Wind Speed 3 mph (WSW)    
Max Wind Speed 12 mph    
Max Gust Speed -    
Visibility 8 miles    
Events Fog , Thunderstorm    
T = Trace of Precipitation, MM = Missing Value Source: NWS Daily Summary

Daily Weather History Graph

Daily Weather History Graph

Search for Another Location

Airport or City:

Trip Planner

Search our weather history database for the weather conditions in past years. The results will help you decide how hot, cold, wet, or windy it might be!

Date:

Astronomy

Jul. 25, 2013 Rise Set
Actual Time 6:49 AM EDT 8:32 PM EDT
Civil Twilight 6:22 AM EDT 8:58 PM EDT
Nautical Twilight 5:51 AM EDT 9:30 PM EDT
Astronomical Twilight 5:17 AM EDT 10:03 PM EDT
Moon 10:34 PM EDT (7/25) 9:58 AM EDT (7/25)
Length of Visible Light 14h 35m
Length of Day
13h 43m
Waning Gibbous, 88% of the Moon is Illuminated
Jul 25
Waning Gibbous
Jul 29
Last Quarter
Aug 6
New
Aug 14
First Quarter
Aug 20
Full

Hourly Weather History & Observations

Time (EDT) Temp. Heat Index Dew Point Humidity Pressure Visibility Wind Dir Wind Speed Gust Speed Precip Events Conditions
12:15 AM 71.6 °F - 69.8 °F 94% 29.89 in 10.0 mi WNW 3.5 mph - N/A   Clear
12:35 AM 71.6 °F - 69.8 °F 94% 29.89 in 10.0 mi Calm Calm - N/A   Clear
12:53 AM 73.0 °F - 70.0 °F 90% 29.87 in - Calm Calm - N/A   Unknown
12:55 AM 71.6 °F - 69.8 °F 94% 29.89 in 10.0 mi Calm Calm - N/A   Scattered Clouds
1:15 AM 71.6 °F - 69.8 °F 94% 29.89 in 7.0 mi Calm Calm - N/A   Mostly Cloudy
1:35 AM 71.6 °F - 69.8 °F 94% 29.89 in 7.0 mi Calm Calm - N/A   Scattered Clouds
1:53 AM 73.0 °F - 70.0 °F 90% 29.87 in - Calm Calm - N/A   Unknown
1:55 AM 71.6 °F - 69.8 °F 94% 29.89 in 7.0 mi Calm Calm - N/A   Scattered Clouds
2:15 AM 69.8 °F - 69.8 °F 100% 29.89 in 1.5 mi Calm Calm - N/A   Mist
2:35 AM 69.8 °F - 68.0 °F 94% 29.89 in 0.8 mi Calm Calm - N/A   Mist
2:53 AM 72.0 °F - 69.1 °F 91% 29.87 in - Calm Calm - N/A   Unknown
2:55 AM 69.8 °F - 69.8 °F 100% 29.89 in 0.8 mi Calm Calm - N/A   Mist
3:15 AM 69.8 °F - 68.0 °F 94% 29.88 in 1.5 mi Calm Calm - N/A   Mist
3:35 AM 69.8 °F - 68.0 °F 94% 29.87 in 1.0 mi Calm Calm - N/A   Overcast
3:53 AM 72.0 °F - 70.0 °F 93% 29.86 in - Calm Calm - N/A   Unknown
3:55 AM 69.8 °F - 69.8 °F 100% 29.88 in 0.8 mi Calm Calm - N/A   Overcast
4:15 AM 69.8 °F - 69.8 °F 100% 29.89 in 0.2 mi Calm Calm - N/A Fog Fog
4:35 AM 71.6 °F - 69.8 °F 94% 29.88 in 7.0 mi West 4.6 mph - N/A   Overcast
4:53 AM 73.0 °F - 70.0 °F 90% 29.86 in - Calm Calm - N/A   Unknown
4:55 AM 71.6 °F - 69.8 °F 94% 29.88 in 10.0 mi Calm Calm - N/A   Overcast
5:15 AM 71.6 °F - 69.8 °F 94% 29.88 in 7.0 mi Calm Calm - N/A   Overcast
5:35 AM 71.6 °F - 69.8 °F 94% 29.89 in 7.0 mi WNW 3.5 mph - N/A   Overcast
5:53 AM 73.0 °F - 70.0 °F 90% 29.88 in - West 4.6 mph - N/A   Unknown
5:55 AM 71.6 °F - 69.8 °F 94% 29.90 in 10.0 mi WNW 5.8 mph - N/A   Overcast
6:15 AM 71.6 °F - 69.8 °F 94% 29.91 in 10.0 mi WNW 4.6 mph - N/A   Overcast
6:35 AM 71.6 °F - 69.8 °F 94% 29.91 in 10.0 mi NW 5.8 mph - N/A   Overcast
6:53 AM 72.0 °F - 70.0 °F 93% 29.90 in - North 3.5 mph - 0.01 in   Unknown
6:55 AM 71.6 °F - 69.8 °F 94% 29.91 in 10.0 mi Calm Calm - N/A   Mostly Cloudy
7:15 AM 69.8 °F - 69.8 °F 100% 29.91 in 7.0 mi Calm Calm - N/A   Scattered Clouds
7:35 AM 71.6 °F - 69.8 °F 94% 29.91 in 7.0 mi Calm Calm - N/A   Clear
7:53 AM 73.9 °F - 70.0 °F 87% 29.90 in - Calm Calm - N/A   Unknown
7:55 AM 71.6 °F - 69.8 °F 94% 29.92 in 7.0 mi Calm Calm - N/A   Clear
8:15 AM 71.6 °F - 69.8 °F 94% 29.92 in 10.0 mi Calm Calm - N/A   Clear
8:35 AM 71.6 °F - 71.6 °F 100% 29.92 in 10.0 mi Calm Calm - N/A   Clear
8:53 AM 77.0 °F - 72.0 °F 84% 29.92 in - WSW 3.5 mph - 0.01 in   Unknown
8:55 AM 73.4 °F - 71.6 °F 94% 29.93 in 10.0 mi Calm Calm - N/A   Clear
9:15 AM 73.4 °F - 71.6 °F 94% 29.94 in 10.0 mi Calm Calm - N/A   Scattered Clouds
9:35 AM 77.0 °F - 73.4 °F 89% 29.94 in 10.0 mi WNW 4.6 mph - N/A Thunderstorm Scattered Clouds
9:53 AM 80.1 °F 83.8 °F 72.0 °F 76% 29.92 in - WNW 6.9 mph - N/A   Unknown
9:55 AM 77.0 °F - 71.6 °F 83% 29.94 in 10.0 mi WNW 5.8 mph - N/A   Clear
10:15 AM 78.8 °F - 71.6 °F 78% 29.95 in 10.0 mi Calm Calm - N/A   Clear
10:35 AM 78.8 °F - 71.6 °F 78% 29.95 in 10.0 mi West 4.6 mph - N/A   Clear
10:53 AM 82.0 °F 87.4 °F 73.0 °F 74% 29.94 in - WSW 9.2 mph - N/A   Unknown
10:55 AM 80.6 °F 84.6 °F 71.6 °F 74% 29.95 in 10.0 mi WSW 8.1 mph - N/A   Clear
11:15 AM 80.6 °F 85.4 °F 73.4 °F 79% 29.96 in 10.0 mi SW 5.8 mph - N/A   Scattered Clouds
11:35 AM 80.6 °F 84.6 °F 71.6 °F 74% 29.96 in 10.0 mi SSW 6.9 mph - N/A   Scattered Clouds
11:53 AM 82.9 °F 88.0 °F 72.0 °F 69% 29.95 in - SW 8.1 mph - N/A   Unknown
11:55 AM 80.6 °F 84.6 °F 71.6 °F 74% 29.97 in 10.0 mi WSW 8.1 mph - N/A   Clear
12:15 PM 80.6 °F 84.6 °F 71.6 °F 74% 29.97 in 10.0 mi SW 8.1 mph - N/A   Scattered Clouds
12:35 PM 80.6 °F 85.4 °F 73.4 °F 79% 29.98 in 10.0 mi WSW 10.4 mph - N/A   Mostly Cloudy
12:53 PM 84.9 °F 91.4 °F 73.0 °F 67% 29.96 in - WSW 8.1 mph - N/A   Unknown
12:55 PM 82.4 °F 87.2 °F 71.6 °F 70% 29.97 in 10.0 mi WSW 8.1 mph - N/A   Mostly Cloudy
1:15 PM 82.4 °F 87.2 °F 71.6 °F 70% 29.97 in 10.0 mi SW 8.1 mph - N/A   Scattered Clouds
1:35 PM 82.4 °F 88.2 °F 73.4 °F 74% 29.96 in 10.0 mi SW 10.4 mph - N/A   Scattered Clouds
1:53 PM 84.9 °F 91.4 °F 73.0 °F 67% 29.94 in - SW 9.2 mph - N/A   Unknown
1:55 PM 82.4 °F 87.2 °F 71.6 °F 70% 29.96 in 10.0 mi SW 9.2 mph - N/A   Mostly Cloudy
2:15 PM 82.4 °F 87.2 °F 71.6 °F 70% 29.96 in 10.0 mi SW 11.5 mph - N/A   Mostly Cloudy
2:35 PM 84.2 °F 89.6 °F 71.6 °F 66% 29.96 in 10.0 mi WSW 10.4 mph - N/A   Scattered Clouds
2:53 PM 87.1 °F 94.5 °F 73.0 °F 63% 29.94 in - SW 10.4 mph - N/A   Unknown
2:55 PM 84.2 °F 89.6 °F 71.6 °F 66% 29.96 in 10.0 mi WSW 9.2 mph - N/A   Scattered Clouds
3:15 PM 84.2 °F 89.6 °F 71.6 °F 66% 29.96 in 10.0 mi SW 10.4 mph - N/A   Mostly Cloudy
3:35 PM 84.2 °F 89.6 °F 71.6 °F 66% 29.95 in 10.0 mi SW 8.1 mph - N/A   Scattered Clouds
3:53 PM 84.9 °F 92.1 °F 73.9 °F 69% 29.93 in - SW 10.4 mph - N/A   Unknown
3:55 PM 84.2 °F 90.9 °F 73.4 °F 70% 29.95 in 10.0 mi WSW 10.4 mph - N/A   Scattered Clouds
4:15 PM 84.2 °F 89.6 °F 71.6 °F 66% 29.94 in 10.0 mi WSW 10.4 mph - N/A   Scattered Clouds
4:35 PM 84.2 °F 90.9 °F 73.4 °F 70% 29.94 in 10.0 mi SSW 8.1 mph - N/A   Clear
4:53 PM 87.1 °F 95.4 °F 73.9 °F 65% 29.92 in - SW 9.2 mph - N/A   Unknown
4:55 PM 86.0 °F 93.4 °F 73.4 °F 66% 29.94 in 10.0 mi SW 9.2 mph - N/A   Scattered Clouds
5:15 PM 86.0 °F 93.4 °F 73.4 °F 66% 29.93 in 10.0 mi SW 9.2 mph - N/A   Scattered Clouds
5:35 PM 84.2 °F 89.6 °F 71.6 °F 66% 29.93 in 10.0 mi WSW 6.9 mph - N/A   Scattered Clouds
5:53 PM 86.0 °F 93.0 °F 73.0 °F 65% 29.91 in - WSW 3.5 mph - N/A   Unknown
5:55 PM 86.0 °F 91.8 °F 71.6 °F 62% 29.93 in 10.0 mi Calm Calm - N/A   Clear
6:15 PM 82.4 °F 87.2 °F 71.6 °F 70% 29.93 in 10.0 mi West 4.6 mph - N/A   Clear
6:53 PM 82.9 °F 89.4 °F 73.9 °F 74% 29.92 in - West 6.9 mph - N/A   Unknown
6:55 PM 82.4 °F 88.2 °F 73.4 °F 74% 29.94 in 10.0 mi West 5.8 mph - N/A   Clear
7:15 PM 80.6 °F 85.4 °F 73.4 °F 79% 29.94 in 10.0 mi West 5.8 mph - N/A   Clear
7:35 PM 80.6 °F 85.4 °F 73.4 °F 79% 29.94 in 10.0 mi Calm Calm - N/A   Clear
7:53 PM 82.9 °F 90.2 °F 75.0 °F 77% 29.93 in - West 3.5 mph - N/A   Unknown
7:55 PM 80.6 °F 85.4 °F 73.4 °F 79% 29.95 in 10.0 mi Calm Calm - N/A   Clear
8:15 PM 80.6 °F 85.4 °F 73.4 °F 79% 29.95 in 10.0 mi West 3.5 mph - N/A   Clear
8:35 PM 78.8 °F - 73.4 °F 83% 29.95 in 10.0 mi Calm Calm - N/A   Clear
8:53 PM 80.1 °F 85.1 °F 75.0 °F 85% 29.94 in - Calm Calm - N/A   Unknown
8:55 PM 78.8 °F - 73.4 °F 83% 29.95 in 5.0 mi Calm Calm - N/A   Clear
9:15 PM 78.8 °F - 73.4 °F 83% 29.95 in 10.0 mi Calm Calm - N/A   Clear
9:35 PM 77.0 °F - 73.4 °F 89% 29.96 in 10.0 mi Calm Calm - N/A   Clear
9:53 PM 78.1 °F - 75.0 °F 90% 29.95 in - Calm Calm - N/A   Unknown
9:55 PM 77.0 °F - 73.4 °F 89% 29.97 in 7.0 mi Calm Calm - N/A   Clear
10:15 PM 77.0 °F - 73.4 °F 89% 29.97 in 7.0 mi Calm Calm - N/A   Clear
10:35 PM 77.0 °F - 73.4 °F 89% 29.97 in 7.0 mi Calm Calm - N/A   Clear
10:53 PM 77.0 °F - 73.9 °F 90% 29.96 in - Calm Calm - N/A   Unknown
10:55 PM 75.2 °F - 73.4 °F 94% 29.98 in 5.0 mi Calm Calm - N/A   Clear
11:15 PM 75.2 °F - 73.4 °F 94% 29.98 in 5.0 mi Calm Calm - N/A   Clear
11:35 PM 73.4 °F - 71.6 °F 94% 29.98 in 2.5 mi Calm Calm - N/A   Clear
11:53 PM 77.0 °F - 73.9 °F 90% 29.97 in - Calm Calm - N/A   Unknown
11:55 PM 75.2 °F - 73.4 °F 94% 29.98 in 4.0 mi Calm Calm - N/A   Clear